Location: Albany
(35.0170°S, 117.8920°E)
Time: 08:45:10
(UTC+08:00)

S-56A Canister/Altair - Pass Details

Date: 30 January 2021
Orbit: 632 x 2501 km, 38.9° (Epoch: 25 February)

Event Time Altitude Azimuth Distance (km) Brightness Sun altitude
Rises 08:26:03 0° 12° (NNE) 4,383 11.6 35.2°
Reaches altitude 10° 08:32:18 10° 45° (NE) 3,934 11.9 36.5°
Maximum altitude 08:34:42 11° 59° (ENE) 4,041 12.2 37.0°
Drops below altitude 10° 08:37:17 10° 72° (ENE) 4,307 12.6 37.5°
Sets 08:45:33 0° 101° (E) 5,801 12.8 39.2°
